Regional Weather Roundup
Issued by NWS Jackson, KY

Home | Current Version | Previous Version | Graphics & Text | Print | Product List | Glossary On
Versions: 1 2 3 4 5 6 7 8 9 10 11 12 13 14 15 16 17 18 19 20 21 22 23 24 25 26 27 28 29 30 31 32 33 34 35 36 37 38 39 40 41 42 43 44 45 46 47 48 49 50
000
ASUS43 KJKL 100110
RWRJKL

EAST KENTUCKY HOURLY WEATHER ROUNDUP
NATIONAL WEATHER SERVICE JACKSON KY
800 PM EST SAT DEC 09 2017

NOTE: "FAIR" INDICATES FEW OR NO CLOUDS BELOW 12,000 FEET WITH
NO SIGNIFICANT WEATHER AND/OR OBSTRUCTIONS TO VISIBILITY.

* THESE REPORTS ARE NOT UNDER NWS QUALITY CONTROL AND MAY NOT
  REPORT WEATHER SUCH AS PRECIPITATION AND FOG.

KYZ079-080-083-085-087-088-110-112-115-119-120-100200
...EASTERN KENTUCKY...

CITY           SKY/WX    TMP DP  RH WIND       PRES   REMARKS
JACKSON        LGT SNOW  28  24  85 VRB5      29.97R FOG     WCI  23
LONDON         LGT SNOW  29  24  82 W9        30.02R WCI  20
SOMERSET*      FLURRIES  30  27  86 W10       30.07R WCI  21
MONTICELLO*    CLOUDY    30  26  85 W18       30.08R WCI  18
WILLIAMSBURG*  CLOUDY    28  27  93 CALM      30.04R
MIDDLESBORO*   CLOUDY    31  22  70 W14G22    30.04R WCI  21
HARLAN APT*    CLOUDY    30  23  74 SW12G20   29.99R WCI  21
PIKE CO APT*   FLURRIES  28  25  87 W6        29.94R WCI  22
BIG SANDY APT* LGT RAIN  30  24  79 W7G17     29.95R WCI  23
MOREHEAD APT*  LGT SNOW  28  25  86 VRB7      29.98R WCI  21
$$

KYZ035-036-041-042-044-050-067-078-099-100200
...CENTRAL KENTUCKY...

CITY           SKY/WX    TMP DP  RH WIND       PRES   REMARKS
MT STERLING*   CLOUDY    30  27  86 W12G22    30.00R WCI  21
FLEMING/MASON* CLOUDY    27  25  90 W12       29.97R WCI  17
DANVILLE*      CLOUDY    30  27  86 W10G21    30.04R WCI  21
LEXINGTON      PTCLDY    28  22  78 W9        30.00R WCI  19
FRANKFORT      CLEAR     29  21  72 W6        30.01R WCI  23
LOUISVILLE     CLOUDY    32  17  54 W13G28    30.06R WCI  22
LEBANON*         N/A     28  21  74 W10G16    30.06R WCI  19
GLASGOW*       MOCLDY    31  23  70 W7        30.10R WCI  25
BOWLING GREEN  CLOUDY    35  21  56 NW6       30.12R WCI  30
$$

KYZ091>093-OHZ055-061-077-WVZ005-015-034-035-042-100200
...SOUTHERN OHIO/WEST VIRGINIA...

CITY           SKY/WX    TMP DP  RH WIND       PRES   REMARKS
COVINGTON      CLOUDY    28  23  81 W17       29.94R WCI  16
COLUMBUS       LGT SNOW  28  25  88 SW8       29.86R FOG     WCI  20
DAYTON         LGT SNOW  27  26  96 W16       29.87R FOG     WCI  15
WILMINGTON     LGT SNOW  27  26  96 W15       29.88R FOG     WCI  15
HUNTINGTON     CLOUDY    30  22  72 W9        29.93R WCI  22
CHARLESTON     LGT SNOW  30  25  81 W9        29.90R WCI  22
PINEVILLE*     LGT SNOW  31  24  74 MISG      29.92R
BECKLEY        FLURRIES  27  19  72 W16       29.82R WCI  15
BLUEFIELD      CLOUDY    27  15  61 W9        29.81R WCI  18
LOGAN CO APT*  LGT SNOW  28  25  86 W10G20    29.89R WCI  19
$$

VAZ002-007-008-TNZ017-027-036-066-071-100200
...SOUTHWEST VIRGINIA/EAST TENNESSEE...

CITY           SKY/WX    TMP DP  RH WIND       PRES   REMARKS
WISE*          FLURRIES  28  23  80 W14G24    29.90R WCI  17
JONESVILLE*    LGT SNOW  32  25  74 W7        30.01R WCI  26
ABINGDON*      CLOUDY    32  23  69 W16G24    29.89R WCI  22
BRISTOL        FLURRIES  33  24  69 W12       29.94R WCI  24
MORRISTOWN*    CLOUDY    32  23  69 NW13G23   30.01R WCI  22
SEVIERVILLE*   CLOUDY    34  21  60 W9G16     30.04R WCI  26
KNOXVILLE      CLOUDY    34  24  67 W18G28    30.06R WCI  23
LAFOLLETTE*    CLOUDY    32  23  69 VRB6G14   30.08R WCI  26
OAK RIDGE      CLOUDY    34  24  67 W6        30.08R WCI  29
CROSSVILLE     CLOUDY    28  19  69 W13G21    30.05R WCI  17
NASHVILLE      CLOUDY    35  20  54 W8        30.15R WCI  29
$$

...KEY TO REMARKS...
VSB - VISIBILITY IN MILES
WCI - WIND CHILL INDEX
HX  - HEAT INDEX

$$



USA.gov is the U.S. government's official web portal to all federal, state and local government web resources and services.